Location: Unspecified
(43.4680°N, 87.1740°E)
Time: 23:54:32
(UTC+00:00)

CZ-2D R/B - Pass Details

Date: 30 July 2021
Orbit: 553 x 637 km, 97.9° (Epoch: 24 September)

Event Time Altitude Azimuth Distance (km) Brightness Sun altitude
Rises 21:16:45 0° 19° (NNE) 2,767 8.1 -15.9°
Reaches altitude 10° 21:18:58 10° 27° (NNE) 1,876 7.2 -15.6°
Maximum altitude 21:22:50 43° 99° (E) 822 4.5 -15.1°
Drops below altitude 10° 21:26:46 10° 171° (S) 1,905 5.7 -14.6°
Enters shadow 21:26:55 - 172° (S) 1,964 5.8 -14.6°
